Weather History for KANJ - January, 2014

Change the Weather History Date:

Wednesday, January 22, 2014

  Actual Average Record
Temperature  
Mean Temperature 0 °F 15 °F  
Max Temperature 5 °F 23 °F 43 °F (1916)
Min Temperature -5 °F 7 °F -22 °F (1975)
Degree Days  
Heating Degree Days 65 50  
Month to date heating degree days 1166 1088  
Since 1 July heating degree days 4681 4347  
Moisture  
Dew Point -5 °F    
Average Humidity 79    
Maximum Humidity 87    
Minimum Humidity 71    
Precipitation  
Precipitation 0.09 in 0.06 in 0.84 in (1933)
Month to date precipitation 1.38 1.62  
Year to date precipitation 1.38 1.62  
Snow  
Snow 0.60 in 0.90 in 7.00 in (1895)
Month to date snowfall 18.1 22.8  
Since 1 July snowfall 72.8 73.0  
Snow Depth 19.00 in    
Sea Level Pressure  
Sea Level Pressure 30.00 in    
Wind  
Wind Speed 9 mph (East)    
Max Wind Speed 16 mph    
Max Gust Speed 23 mph    
Visibility 4 miles    
Events Snow    
T = Trace of Precipitation, MM = Missing Value Source: NWS Daily Summary

Daily Weather History Graph

Daily Weather History Graph

Search for Another Location

Airport or City:

Trip Planner

Search our weather history database for the weather conditions in past years. The results will help you decide how hot, cold, wet, or windy it might be!

Date:

Astronomy

Jan. 22, 2014 Rise Set
Actual Time 8:11 AM EST 5:26 PM EST
Civil Twilight 7:38 AM EST 6:00 PM EST
Nautical Twilight 7:01 AM EST 6:37 PM EST
Astronomical Twilight 6:25 AM EST 7:12 PM EST
Moon No Moon Rise 10:48 AM EST (1/22)
Length of Visible Light 10h 21m
Length of Day
9h 15m
Waning Gibbous, 65% of the Moon is Illuminated
Jan 22
Waning Gibbous
Jan 24
Last Quarter
Jan 30
New
Feb 6
First Quarter
Feb 14
Full

Hourly Weather History & Observations

Time (EST) Temp. Windchill Dew Point Humidity Pressure Visibility Wind Dir Wind Speed Gust Speed Precip Events Conditions
12:55 AM -5.1 °F -13.6 °F -11.0 °F 76% 30.15 in 10.0 mi East 3.5 mph - N/A   Overcast
1:55 AM -5.1 °F -15.8 °F -11.0 °F 76% 30.15 in 10.0 mi ESE 4.6 mph - N/A   Overcast
2:55 AM -4.0 °F -16.3 °F -9.9 °F 76% 30.13 in 10.0 mi East 5.8 mph - N/A   Overcast
3:55 AM -5.1 °F -20.4 °F -11.0 °F 76% 30.11 in 10.0 mi East 8.1 mph - N/A   Overcast
4:55 AM -4.0 °F -14.6 °F -9.9 °F 76% 30.09 in 10.0 mi ENE 4.6 mph - N/A   Overcast
5:55 AM -4.0 °F -17.8 °F -9.9 °F 76% 30.07 in 8.0 mi East 6.9 mph - 0.00 in Snow Light Snow
6:10 AM -4.0 °F -17.8 °F -9.9 °F 76% 30.00 in 2.0 mi East 6.9 mph - 0.00 in Snow Light Snow
6:19 AM -4.0 °F -17.8 °F -9.0 °F 79% 30.00 in 2.0 mi East 6.9 mph - 0.00 in Snow Light Snow
6:55 AM -2.9 °F -17.7 °F -9.0 °F 75% 30.06 in 3.0 mi East 8.1 mph - 0.00 in Snow Light Snow
7:17 AM -2.9 °F -17.7 °F -8.0 °F 79% 30.00 in 2.5 mi East 8.1 mph - 0.01 in Snow Light Snow
7:33 AM -2.9 °F -17.7 °F -8.0 °F 79% 29.99 in 3.0 mi East 8.1 mph - 0.01 in Snow Light Snow
7:55 AM -2.9 °F -16.5 °F -8.0 °F 79% 30.04 in 3.0 mi East 6.9 mph - 0.01 in Snow Light Snow
8:15 AM -2.0 °F -15.4 °F -8.0 °F 76% 29.98 in 2.5 mi East 6.9 mph - 0.00 in Snow Light Snow
8:26 AM -2.0 °F -16.6 °F -8.0 °F 76% 29.97 in 1.8 mi East 8.1 mph - 0.00 in Snow Light Snow
8:49 AM -2.2 °F -16.8 °F -7.6 °F 78% 29.97 in 2.0 mi East 8.1 mph - 0.01 in Snow Light Snow
8:55 AM -2.0 °F -17.7 °F -7.1 °F 79% 30.03 in 2.5 mi East 9.2 mph - 0.01 in Snow Light Snow
9:04 AM -2.0 °F -17.7 °F -7.1 °F 79% 29.97 in 4.0 mi East 9.2 mph - 0.00 in Snow Light Snow
9:21 AM -2.0 °F -15.4 °F -7.1 °F 79% 29.97 in 1.8 mi East 6.9 mph - 0.00 in Snow Light Snow
9:55 AM -2.0 °F -19.6 °F -7.1 °F 79% 30.03 in 1.2 mi East 11.5 mph - 0.00 in Snow Light Snow
10:46 AM -0.9 °F -17.4 °F -7.1 °F 75% 29.96 in 2.0 mi East 10.4 mph 19.6 mph 0.01 in Snow Light Snow
10:55 AM -0.9 °F -18.3 °F -7.1 °F 75% 30.02 in 2.0 mi East 11.5 mph - 0.01 in Snow Light Snow
11:12 AM -0.0 °F -16.3 °F -6.0 °F 76% 29.95 in 1.5 mi East 10.4 mph 18.4 mph 0.00 in Snow Light Snow
11:25 AM -0.0 °F -18.0 °F -6.0 °F 76% 29.95 in 1.2 mi East 12.7 mph 19.6 mph 0.00 in Snow Light Snow
11:55 AM 1.0 °F -14.9 °F -5.1 °F 75% 29.99 in 1.0 mi East 10.4 mph 19.6 mph 0.00 in Snow Light Snow
12:30 PM 1.9 °F -15.5 °F -5.1 °F 72% 29.92 in 2.0 mi East 12.7 mph - 0.01 in Snow Light Snow
12:46 PM 1.9 °F -14.7 °F -5.1 °F 72% 29.91 in 4.0 mi ESE 11.5 mph 18.4 mph 0.01 in Snow Light Snow
12:55 PM 1.9 °F -12.9 °F -5.1 °F 72% 29.97 in 4.0 mi ESE 9.2 mph 18.4 mph 0.01 in Snow Light Snow
1:55 PM 3.0 °F -13.3 °F -4.0 °F 73% 29.95 in 8.0 mi ESE 11.5 mph 19.6 mph 0.00 in   Overcast
2:55 PM 3.9 °F -11.3 °F -2.9 °F 73% 29.94 in 7.0 mi East 10.4 mph - N/A   Overcast
3:55 PM 3.9 °F -12.2 °F -2.9 °F 73% 29.96 in 4.0 mi East 11.5 mph 19.6 mph 0.00 in Snow Light Snow
4:15 PM 3.9 °F -11.3 °F -2.0 °F 76% 29.90 in 1.8 mi East 10.4 mph - 0.00 in Snow Light Snow
4:32 PM 3.9 °F -10.4 °F -0.9 °F 80% 29.90 in 1.0 mi East 9.2 mph 18.4 mph 0.00 in Snow Light Snow
4:48 PM 3.9 °F -8.2 °F -0.9 °F 80% 29.91 in 0.8 mi East 6.9 mph - 0.00 in Snow Light Snow
4:55 PM 3.9 °F -8.2 °F -0.9 °F 80% 29.97 in 0.8 mi East 6.9 mph - 0.01 in Snow Light Snow
5:17 PM 3.9 °F -10.4 °F -0.9 °F 80% 29.92 in 1.0 mi East 9.2 mph - 0.00 in Snow Light Snow
5:50 PM 3.2 °F -9.1 °F -0.4 °F 85% 29.93 in 2.0 mi East 6.9 mph - 0.00 in Snow Light Snow
5:55 PM 3.9 °F -9.4 °F -0.9 °F 80% 29.99 in 2.0 mi ESE 8.1 mph - 0.00 in Snow Light Snow
6:11 PM 3.9 °F -10.4 °F -0.9 °F 80% 29.94 in 1.8 mi East 9.2 mph - 0.01 in Snow Light Snow
6:55 PM 5.0 °F -5.6 °F -0.0 °F 80% 30.01 in 2.0 mi East 5.8 mph - 0.01 in Snow Light Snow
7:27 PM 5.0 °F -8.1 °F -0.0 °F 80% 29.97 in 1.8 mi East 8.1 mph - 0.01 in Snow Light Snow
7:55 PM 5.0 °F -9.1 °F -0.0 °F 80% 30.03 in 1.5 mi East 9.2 mph - 0.01 in Snow Light Snow
8:50 PM 5.0 °F -4.1 °F 1.4 °F 85% 29.99 in 2.0 mi ENE 4.6 mph - 0.01 in Snow Light Snow
8:55 PM 5.0 °F -6.9 °F 1.0 °F 84% 30.04 in 1.8 mi ENE 6.9 mph - 0.01 in Snow Light Snow
8:57 PM 5.0 °F -6.9 °F 1.0 °F 84% 29.99 in 2.0 mi ENE 6.9 mph - 0.00 in Snow Light Snow
9:55 PM 5.0 °F -10.0 °F -0.9 °F 76% 30.06 in 2.5 mi ENE 10.4 mph - 0.00 in Snow Light Snow
10:14 PM 5.0 °F -9.1 °F -0.9 °F 76% 30.01 in 2.5 mi ENE 9.2 mph - 0.01 in Snow Light Snow
10:42 PM 5.0 °F -10.0 °F -0.9 °F 76% 30.02 in 3.0 mi ENE 10.4 mph - 0.01 in Snow Light Snow
10:55 PM 5.0 °F -10.0 °F -0.9 °F 76% 30.08 in 4.0 mi ENE 10.4 mph 17.3 mph 0.01 in Snow Light Snow
11:02 PM 5.0 °F -11.6 °F -2.0 °F 73% 30.03 in 6.0 mi ENE 12.7 mph - 0.00 in   Haze
11:55 PM 5.0 °F -9.1 °F -4.0 °F 66% 30.11 in 10.0 mi ENE 9.2 mph - 0.00 in   Overcast